TimeCST,TemperatureF,Dew PointF,Humidity,Sea Level PressureIn,VisibilityMPH,Wind Direction,Wind SpeedMPH,Gust SpeedMPH,PrecipitationIn,Events,Conditions,WindDirDegrees,DateUTC
12:15 AM,50.0,48.2,94,29.87,7.0,NE,8.1,-,N/A,,Overcast,50,2011-11-09 06:15:00
12:35 AM,51.8,50.0,94,29.85,5.0,East,10.4,-,0.01,,Overcast,80,2011-11-09 06:35:00
12:55 AM,51.8,50.0,94,29.84,5.0,East,5.8,-,0.01,,Overcast,90,2011-11-09 06:55:00
1:15 AM,51.8,50.0,94,29.83,4.0,East,8.1,-,N/A,,Overcast,80,2011-11-09 07:15:00
1:35 AM,51.8,50.0,94,29.82,4.0,East,5.8,-,N/A,,Overcast,90,2011-11-09 07:35:00
1:55 AM,53.6,51.8,94,29.81,5.0,ESE,4.6,-,N/A,,Overcast,110,2011-11-09 07:55:00
2:15 AM,55.4,53.6,94,29.80,7.0,SE,4.6,-,N/A,,Overcast,140,2011-11-09 08:15:00
2:35 AM,57.2,55.4,94,29.78,10.0,SE,5.8,-,N/A,,Overcast,140,2011-11-09 08:35:00
2:55 AM,59.0,55.4,88,29.77,10.0,SE,6.9,-,N/A,,Overcast,140,2011-11-09 08:55:00
3:15 AM,59.0,55.4,88,29.75,10.0,SE,9.2,-,N/A,,Overcast,140,2011-11-09 09:15:00
3:35 AM,57.2,55.4,94,29.74,10.0,ESE,4.6,-,N/A,,Overcast,120,2011-11-09 09:35:00
3:55 AM,59.0,55.4,88,29.72,10.0,SSE,10.4,16.1,N/A,,Overcast,150,2011-11-09 09:55:00
4:15 AM,59.0,55.4,88,29.69,10.0,ESE,10.4,-,N/A,,Overcast,120,2011-11-09 10:15:00
4:35 AM,59.0,55.4,88,29.69,10.0,SE,12.7,17.3,N/A,Rain,Rain,140,2011-11-09 10:35:00
4:55 AM,59.0,55.4,88,29.67,10.0,SE,15.0,23.0,0.01,,Drizzle,140,2011-11-09 10:55:00
5:15 AM,59.0,55.4,88,29.65,10.0,SSE,17.3,24.2,N/A,,Overcast,160,2011-11-09 11:15:00
5:35 AM,59.0,55.4,88,29.65,10.0,SSE,23.0,32.2,N/A,,Overcast,150,2011-11-09 11:35:00
5:55 AM,59.0,55.4,88,29.63,10.0,SE,17.3,27.6,N/A,,Overcast,140,2011-11-09 11:55:00
6:15 AM,59.0,55.4,88,29.62,5.0,SSE,13.8,20.7,0.03,Rain,Rain,150,2011-11-09 12:15:00
6:35 AM,57.2,55.4,94,29.61,7.0,SSE,15.0,19.6,0.07,Rain,Light Rain,150,2011-11-09 12:35:00
6:55 AM,57.2,55.4,94,29.60,10.0,SSE,17.3,26.5,0.07,,Overcast,160,2011-11-09 12:55:00
7:15 AM,57.2,55.4,94,29.60,7.0,SSE,15.0,27.6,0.01,Rain,Light Rain,160,2011-11-09 13:15:00
7:35 AM,59.0,55.4,88,29.61,10.0,South,21.9,31.1,0.01,Rain,Light Rain,170,2011-11-09 13:35:00
7:55 AM,59.0,55.4,88,29.60,10.0,South,17.3,28.8,0.01,,Overcast,180,2011-11-09 13:55:00
8:15 AM,57.2,50.0,77,29.62,10.0,SW,26.5,36.8,N/A,,Light Drizzle,220,2011-11-09 14:15:00
8:35 AM,55.4,50.0,82,29.62,10.0,SSW,20.7,28.8,N/A,,Overcast,210,2011-11-09 14:35:00
8:55 AM,55.4,48.2,77,29.63,10.0,SW,27.6,39.1,N/A,,Mostly Cloudy,220,2011-11-09 14:55:00
9:15 AM,53.6,46.4,77,29.63,10.0,SSW,26.5,36.8,N/A,,Mostly Cloudy,210,2011-11-09 15:15:00
9:35 AM,51.8,44.6,76,29.64,10.0,SSW,35.7,43.7,N/A,,Mostly Cloudy,210,2011-11-09 15:35:00
9:55 AM,51.8,46.4,82,29.64,10.0,SW,34.5,42.6,N/A,,Overcast,220,2011-11-09 15:55:00
10:15 AM,50.0,44.6,82,29.65,10.0,SW,32.2,42.6,N/A,,Overcast,220,2011-11-09 16:15:00
10:35 AM,48.2,42.8,82,29.66,10.0,SW,29.9,42.6,N/A,,Overcast,220,2011-11-09 16:35:00
10:55 AM,46.4,41.0,81,29.66,10.0,SW,31.1,42.6,N/A,,Overcast,220,2011-11-09 16:55:00
11:15 AM,46.4,42.8,87,29.66,5.0,SW,29.9,42.6,N/A,,Overcast,220,2011-11-09 17:15:00
11:35 AM,46.4,42.8,87,29.67,7.0,WSW,31.1,41.4,N/A,,Overcast,240,2011-11-09 17:35:00
11:55 AM,44.6,41.0,87,29.69,7.0,WSW,26.5,36.8,N/A,,Overcast,240,2011-11-09 17:55:00
12:15 PM,42.8,37.4,81,29.70,10.0,WSW,21.9,38.0,N/A,,Overcast,250,2011-11-09 18:15:00
12:35 PM,42.8,37.4,81,29.71,10.0,WSW,28.8,35.7,N/A,,Overcast,250,2011-11-09 18:35:00
12:55 PM,41.0,37.4,87,29.73,5.0,WSW,21.9,33.4,N/A,,Overcast,250,2011-11-09 18:55:00
1:15 PM,41.0,35.6,81,29.74,10.0,West,26.5,34.5,N/A,,Overcast,260,2011-11-09 19:15:00
1:35 PM,41.0,35.6,81,29.75,10.0,West,24.2,31.1,N/A,,Overcast,260,2011-11-09 19:35:00
1:55 PM,39.2,35.6,87,29.77,10.0,West,25.3,34.5,N/A,,Overcast,260,2011-11-09 19:55:00
2:15 PM,39.2,35.6,87,29.79,10.0,West,25.3,35.7,N/A,,Light Drizzle,270,2011-11-09 20:15:00
2:35 PM,39.2,35.6,87,29.81,10.0,West,24.2,32.2,N/A,,Overcast,280,2011-11-09 20:35:00
2:55 PM,41.0,35.6,81,29.82,7.0,West,25.3,38.0,N/A,Rain,Rain,280,2011-11-09 20:55:00
3:15 PM,39.2,35.6,87,29.85,10.0,West,25.3,38.0,N/A,,Light Drizzle,270,2011-11-09 21:15:00
3:35 PM,37.4,35.6,93,29.86,10.0,West,24.2,33.4,N/A,,Overcast,270,2011-11-09 21:35:00
3:55 PM,37.4,33.8,87,29.88,10.0,West,25.3,35.7,N/A,,Overcast,270,2011-11-09 21:55:00
4:15 PM,39.2,33.8,81,29.91,10.0,West,26.5,32.2,N/A,,Overcast,270,2011-11-09 22:15:00
4:35 PM,39.2,33.8,81,29.93,10.0,West,21.9,31.1,N/A,,Overcast,280,2011-11-09 22:35:00
4:55 PM,39.2,33.8,81,29.95,10.0,West,21.9,31.1,N/A,,Overcast,280,2011-11-09 22:55:00
5:15 PM,37.4,33.8,87,29.96,10.0,West,21.9,33.4,N/A,,Overcast,280,2011-11-09 23:15:00
5:35 PM,39.2,33.8,81,29.97,10.0,West,20.7,26.5,N/A,,Overcast,280,2011-11-09 23:35:00
5:55 PM,39.2,33.8,81,29.99,10.0,West,19.6,28.8,N/A,,Overcast,280,2011-11-09 23:55:00
6:15 PM,39.2,33.8,81,30.00,10.0,West,21.9,27.6,N/A,,Light Drizzle,280,2011-11-10 00:15:00
6:35 PM,39.2,33.8,81,30.01,10.0,West,19.6,27.6,N/A,,Overcast,280,2011-11-10 00:35:00
6:55 PM,39.2,33.8,81,30.01,10.0,West,16.1,26.5,N/A,,Overcast,280,2011-11-10 00:55:00
7:15 PM,39.2,33.8,81,30.01,10.0,West,12.7,19.6,N/A,,Overcast,270,2011-11-10 01:15:00
7:35 PM,39.2,33.8,81,30.02,10.0,West,13.8,19.6,N/A,,Overcast,270,2011-11-10 01:35:00
7:55 PM,37.4,32.0,81,30.02,10.0,West,11.5,17.3,N/A,,Scattered Clouds,260,2011-11-10 01:55:00
8:15 PM,37.4,32.0,81,30.03,10.0,WSW,9.2,-,N/A,,Clear,250,2011-11-10 02:15:00
8:35 PM,35.6,32.0,87,30.03,10.0,WSW,10.4,-,N/A,,Clear,250,2011-11-10 02:35:00
8:55 PM,35.6,32.0,87,30.03,10.0,SW,10.4,-,N/A,,Clear,230,2011-11-10 02:55:00
9:15 PM,35.6,32.0,87,30.03,10.0,SW,8.1,-,N/A,,Clear,230,2011-11-10 03:15:00
9:35 PM,35.6,32.0,87,30.03,10.0,SW,6.9,-,N/A,,Clear,230,2011-11-10 03:35:00
9:55 PM,35.6,32.0,87,30.03,10.0,WSW,9.2,-,N/A,,Clear,240,2011-11-10 03:55:00
10:15 PM,33.8,32.0,93,30.02,10.0,WSW,9.2,-,N/A,,Clear,240,2011-11-10 04:15:00
10:35 PM,35.6,32.0,87,30.02,10.0,WSW,10.4,-,N/A,,Clear,240,2011-11-10 04:35:00
10:55 PM,35.6,32.0,87,30.02,10.0,WSW,9.2,-,N/A,,Clear,250,2011-11-10 04:55:00
11:15 PM,35.6,32.0,87,30.02,10.0,WSW,10.4,-,N/A,,Clear,250,2011-11-10 05:15:00
11:35 PM,35.6,32.0,87,30.02,10.0,WSW,11.5,-,N/A,,Clear,250,2011-11-10 05:35:00
11:55 PM,35.6,32.0,87,30.02,10.0,WSW,12.7,-,N/A,,Clear,250,2011-11-10 05:55:00